Preview of NWS' New Version of Forecast
This preview is not operational and should not be used for support decisions.

Regional Weather Roundup (RWR)

Issued by National Weather Service (NWS)

                            
000
ASUS46 KPQR 162010
RWROR 

OREGON REGIONAL WEATHER ROUNDUP
NATIONAL WEATHER SERVICE PORTLAND OR
100 PM PDT FRI AUG 16 2019

NOTE: "FAIR" INDICATES FEW OR NO CLOUDS BELOW 12,000 FEET WITH
NO SIGNIFICANT WEATHER AND/OR OBSTRUCTIONS TO VISIBILITY.

ORZ001>013-162100-
NORTHWEST OREGON

  
CITY           SKY/WX    TMP DP  RH WIND       PRES   REMARKS
ASTORIA        CLOUDY    66  55  67 NW12      30.15F                  
TILLAMOOK      CLOUDY    70  52  52 NW13      30.17F                  
NEWPORT        MOSUNNY   68  52  56 NW16      30.18F                  
PORTLAND       PTSUNNY   72  50  45 W9        30.14F                  
VANCOUVER WA   CLOUDY    69  49  48 NW5       30.14F                  
SCAPPOOSE      CLOUDY    69  53  56 VRB5      30.13F                  
HILLSBORO      PTSUNNY   69  50  50 CALM      30.13F                  
AURORA         PTSUNNY   72  48  42 MISG      30.14F                  
MCMINNVILLE    SUNNY     72  50  45 N5        30.13F                  
SALEM          MOSUNNY   69  48  47 S5        30.13F                  
CORVALLIS      MOSUNNY   73  52  47 NW8       30.13F                  
EUGENE         MOSUNNY   74  51  44 N12       30.13F                  
$$

ORZ021-028-162100-
SOUTHWEST OREGON

  
CITY           SKY/WX    TMP DP  RH WIND       PRES   REMARKS
NORTH BEND     SUNNY     70  54  56 N20       30.14F                  
BROOKINGS      SUNNY     82  56  40 NW15      29.97F                  
ROSEBURG       SUNNY     73  55  53 N12G17    30.11F                  
SEXTON SUMMIT  SUNNY     72  50  45 VRB6      30.15F                  
GRANTS PASS    FAIR      82  48  30 NW9G16    30.06F                  
MEDFORD        SUNNY     79  37  22 VRB5      30.03F                  
$$

ORZ014>016-041-162100-
COLUMBIA GORGE

  
CITY           SKY/WX    TMP DP  RH WIND       PRES   REMARKS
TROUTDALE      CLOUDY    70  48  45 NW5       30.13F                  
HOOD RIVER     SUNNY     70  46  43 W9G21     30.05F                  
THE DALLES     SUNNY     75  48  38 NW21      29.99F                  
$$

ORZ029>031-041-044-049-050-061>064-502-503-505>511-162100-
EASTERN OREGON

  
CITY           SKY/WX    TMP DP  RH WIND       PRES   REMARKS
MADRAS         SUNNY     77  37  24 NW3       30.07F                  
REDMOND        SUNNY     80  30  16 N9        30.06F                  
BEND           SUNNY     79  23  12 N9        30.07F                  
PRINEVILLE     SUNNY     77  30  18 SW9       30.07F                  
KLAMATH FALLS  SUNNY     77  29  17 SW3       30.10F                  
LAKEVIEW       SUNNY     78  39  24 VRB6      30.12F                  
HERMISTON      SUNNY     83  46  27 VRB7      29.95F                  
PENDLETON      SUNNY     81  41  24 W9        29.98F                  
JOHN DAY       SUNNY     76  31  18 NW9G17    30.08F                  
MEACHAM        SUNNY     71  45  39 CALM      30.08F                  
LA GRANDE      SUNNY     76  44  32 NW7       30.02F                  
BAKER CITY     SUNNY     79  44  28 N6        30.04F                  
BURNS          SUNNY     81  28  14 W8        30.08F                  
ROME             N/A     84  34  16 VRB6      30.04F                  
ONTARIO        SUNNY     86  42  21 VRB3      29.97F                  
$$